Simultaneous Nadir Overpasses (SNOs) Predictions

Prediction of SNOs between METOP-B and TERRA Satellite Orbit:

Table of predicted SNOs for the next 14.0 days since TLE Epoch: 5/21/2016
Index Date (METOP-B) Time (METOP-B) Lat,Lon (METOP-B) SZA (METOP-B ) Date (TERRA) Time (TERRA) Lat,Lon (TERRA) SZA (TERRA ) Distance(km) Time Diff (sec)
1 05/23/2016 10:04:37 -81.27,-104.65 116.50 05/23/2016 10:05:31 -81.27,-104.62 116.47 0.56 54
2 05/23/2016 10:55:16 81.28, 63.32 63.58 05/23/2016 10:54:57 81.28, 63.21 63.56 1.97 19
3 05/26/2016 05:39:00 -81.26, -38.45 117.03 05/26/2016 05:39:47 -81.26, -38.27 116.99 3.09 47
4 05/26/2016 06:29:39 81.27, 129.52 63.05 05/26/2016 06:29:13 81.27, 129.53 63.03 0.42 26
5 05/29/2016 01:13:22 -81.27, 28.50 117.43 05/29/2016 01:14:03 -81.27, 28.34 117.43 2.75 41
6 05/
